Location: *
(45.9500°N, 9.0833°E)
Time: 10:42:52
(UTC+00:00)

Courier 1B Rocket - All Passes

Search period start: 15 June 2021 00:00
Search period end: 25 June 2021 00:00
Orbit: 920 x 1202 km, 28.2° (Epoch: 14 June)

Date Brightness Start Highest point End Pass type
(mag) Time Alt. Az. Time Alt. Az. Time Alt. Az.
15 Jun - 20:51:05 10° SSW 20:54:08 14° S 20:57:09 10° SE visible
15 Jun - 22:43:17 10° SW 22:46:17 14° S 22:49:17 10° SSE visible
16 Jun - 19:50:59 10° SSW 19:53:30 12° SSE 19:55:59 10° SE visible
16 Jun - 21:42:21 10° SW 21:45:40 15° S 21:48:57 10° SSE visible
17 Jun - 18:51:37 10° S 18:52:52 11° SSE 18:54:06 10° SSE daylight
17 Jun - 20:41:35 10° SSW 20:45:01 15° S 20:48:24 10° SE visible
17 Jun - 22:34:54 10° SW 22:37:10 12° SSW 22:39:24 10° S visible
18 Jun - 19:41:01 10° SSW 19:44:22 15° S 19:47:39 10° SE daylight
18 Jun - 21:33:29 10° SW 21:36:33 14° S 21:39:34 10° SSE visible
19 Jun - 18:40:41 10° SSW 18:43:42 13° S 18:46:38 10° SE daylight
19 Jun - 20:32:23 10° SW 20:35:54 15° S 20:39:21 10° SSE visible
20 Jun - 17:40:49 10° S 17:43:01 12° SSE 17:45:11 10° SE daylight
20 Jun - 19:31:28 10° SW 19:35:14 16° S 19:38:54 10° SE daylight
20 Jun - 21:24:59 10° SW 21:27:24 12° SSW 21:29:46 10° S visible
21 Jun - 18:30:45 10° SSW 18:34:33 16° S 18:38:13 10° SE daylight
21 Jun - 20:23:25 10° SW 20:26:46 14° S 20:30:02 10° SSE visible
22 Jun - 17:30:16 10° SSW 17:33:50 15° S 17:37:17 10° SE daylight
22 Jun - 19:22:12 10° SW 19:26:05 16° S 19:29:52 10° SSE daylight
23 Jun - 16:30:08 10° S 16:33:06 13° SSE 16:36:00 10° SE daylight
23 Jun - 18:21:11 10° SW 18:25:24 17° S 18:29:26 10° SE daylight
23 Jun - 20:14:48 10° SW 20:17:36 13° SSW 20:20:19 10° S visible
24 Jun - 15:30:57 10° S 15:32:21 11° SSE 15:33:45 10° SSE daylight
24 Jun - 17:20:22 10° SSW 17:24:39 17° S 17:28:46 10° SE daylight
24 Jun - 19:13:10 10° SW 19:16:55 15° S 19:20:34 10° SSE daylight
